[keps] orb10273.amsat
Ray Hoad
ray.hoad at mypbmail.com
Thu Sep 30 20:15:22 PDT 2010
SB KEPS @ AMSAT $ORB10273.O
Orbital Elements 10273.OSCAR
HR AMSAT ORBITAL ELEMENTS FOR OSCAR SATELLITES
FROM WA5QGD FORT WORTH,TX September 30, 2010
BID: ORB10273.O
TO ALL RADIO AMATEURS BT
Satellite: AO-07
Catalog number: 07530
Epoch time: 10273.46710209
Element set: 890
Inclination: 101.4006 deg
RA of node: 285.2451 deg
Eccentricity: 0.0012161
Arg of perigee: 067.6573 deg
Mean anomaly: 292.5794 deg
Mean motion: 12.53579821 rev/day
Decay rate: -2.7e-07 rev/day^2
Epoch rev: 64164
Checksum: 288
Satellite: FO-29
Catalog number: 24278
Epoch time: 10273.55929418
Element set: 409
Inclination: 098.5170 deg
RA of node: 088.1440 deg
Eccentricity: 0.0350167
Arg of perigee: 210.3937 deg
Mean anomaly: 147.6481 deg
Mean motion: 13.52952660 rev/day
Decay rate: -2.5e-07 rev/day^2
Epoch rev: 69735
Checksum: 324
Satellite: SO-33
Catalog number: 25509
Epoch time: 10272.40114350
Element set: 0804
Inclination: 031.4314 deg
RA of node: 279.1832 deg
Eccentricity: 0.0353595
Arg of perigee: 121.1966 deg
Mean anomaly: 242.3813 deg
Mean motion: 14.28330436 rev/day
Decay rate: 1.64e-06 rev/day^2
Epoch rev: 62296
Checksum: 276
Satellite: RS-22
Catalog number: 27939
Epoch time: 10273.69202779
Element set: 590
Inclination: 097.8751 deg
RA of node: 134.6166 deg
Eccentricity: 0.0014743
Arg of perigee: 085.9635 deg
Mean anomaly: 274.3247 deg
Mean motion: 14.63457458 rev/day
Decay rate: 1.65e-06 rev/day^2
Epoch rev: 37438
Checksum: 345
Satellite: VO-52
Catalog number: 28650
Epoch time: 10273.81387658
Element set: 610
Inclination: 097.6803 deg
RA of node: 323.0632 deg
Eccentricity: 0.0025928
Arg of perigee: 292.4864 deg
Mean anomaly: 067.3574 deg
Mean motion: 14.81814499 rev/day
Decay rate: -5.8e-07 rev/day^2
Epoch rev: 29233
Checksum: 332
Satellite: SO-67
Catalog number: 35870
Epoch time: 10273.90307170
Element set: 153
Inclination: 097.3197 deg
RA of node: 320.1805 deg
Eccentricity: 0.0004676
Arg of perigee: 086.3972 deg
Mean anomaly: 000.0349 deg
Mean motion: 15.21080983 rev/day
Decay rate: 1.056e-05 rev/day^2
Epoch rev: 5752
Checksum: 291
Satellite: HO-68
Catalog number: 36122
Epoch time: 10273.74742907
Element set: 716
Inclination: 100.4581 deg
RA of node: 333.0527 deg
Eccentricity: 0.0007801
Arg of perigee: 095.5635 deg
Mean anomaly: 264.6372 deg
Mean motion: 13.16281884 rev/day
Decay rate: -4.5e-07 rev/day^2
Epoch rev: 3810
Checksum: 291
/EX
SB KEPS @ AMSAT $ORB10273.D
Orbital Elements 10273.MICROS
HR AMSAT ORBITAL ELEMENTS FOR THE MICROSATS
FROM WA5QGD FORT WORTH,TX September 30, 2010
BID: ORB10273.D
TO ALL RADIO AMATEURS BT
Satellite: UO-11
Catalog number: 14781
Epoch time: 10273.30142945
Element set: 351
Inclination: 098.0429 deg
RA of node: 325.2944 deg
Eccentricity: 0.0008058
Arg of perigee: 259.6677 deg
Mean anomaly: 100.3648 deg
Mean motion: 14.79837777 rev/day
Decay rate: -1.18e-06 rev/day^2
Epoch rev: 42735
Checksum: 321
Satellite: AO-16
Catalog number: 20439
Epoch time: 10273.42669509
Element set: 6
Inclination: 098.3444 deg
RA of node: 227.2543 deg
Eccentricity: 0.0010212
Arg of perigee: 211.1638 deg
Mean anomaly: 148.8948 deg
Mean motion: 14.31875866 rev/day
Decay rate: 3.1e-07 rev/day^2
Epoch rev: 8044
Checksum: 292
Satellite: LO-19
Catalog number: 20442
Epoch time: 10273.40756491
Element set: 915
Inclination: 098.3075 deg
RA of node: 232.6162 deg
Eccentricity: 0.0011347
Arg of perigee: 205.0382 deg
Mean anomaly: 155.0271 deg
Mean motion: 14.32105239 rev/day
Decay rate: -3.8e-07 rev/day^2
Epoch rev: 8061
Checksum: 265
Satellite: AO-27
Catalog number: 22825
Epoch time: 10272.38931744
Element set: 0639
Inclination: 098.4965 deg
RA of node: 217.6918 deg
Eccentricity: 0.0008092
Arg of perigee: 328.3769 deg
Mean anomaly: 031.6913 deg
Mean motion: 14.29309114 rev/day
Decay rate: -4.4e-07 rev/day^2
Epoch rev: 88693
Checksum: 340
Satellite: IO-26
Catalog number: 22826
Epoch time: 10273.90589663
Element set: 377
Inclination: 098.4896 deg
RA of node: 219.7332 deg
Eccentricity: 0.0008431
Arg of perigee: 318.4184 deg
Mean anomaly: 041.6362 deg
Mean motion: 14.29567106 rev/day
Decay rate: 2.5e-07 rev/day^2
Epoch rev: 88726
Checksum: 332
Satellite: GO-32
Catalog number: 25397
Epoch time: 10272.85572716
Element set: 0296
Inclination: 098.3160 deg
RA of node: 274.5589 deg
Eccentricity: 0.0001124
Arg of perigee: 005.7697 deg
Mean anomaly: 354.3497 deg
Mean motion: 14.23185190 rev/day
Decay rate: -1.07e-06 rev/day^2
Epoch rev: 63493
Checksum: 323
Satellite: NO-44
Catalog number: 26931
Epoch time: 10273.42420535
Element set: 570
Inclination: 067.0532 deg
RA of node: 292.8353 deg
Eccentricity: 0.0005419
Arg of perigee: 270.2742 deg
Mean anomaly: 089.7731 deg
Mean motion: 14.29613678 rev/day
Decay rate: 2.19e-06 rev/day^2
Epoch rev: 46979
Checksum: 316
Satellite: SO-50
Catalog number: 27607
Epoch time: 10273.81991407
Element set: 282
Inclination: 064.5583 deg
RA of node: 035.6581 deg
Eccentricity: 0.0042176
Arg of perigee: 031.8697 deg
Mean anomaly: 328.4925 deg
Mean motion: 14.71581789 rev/day
Decay rate: -.00000000 rev/day^2
Epoch rev: 41792
Checksum: 315
Satellite: CO-55
Catalog number: 27844
Epoch time: 10273.45304513
Element set: 947
Inclination: 098.7111 deg
RA of node: 280.9264 deg
Eccentricity: 0.0008991
Arg of perigee: 226.0830 deg
Mean anomaly: 133.9612 deg
Mean motion: 14.20733183 rev/day
Decay rate: 8.6e-07 rev/day^2
Epoch rev: 37603
Checksum: 300
Satellite: CO-57
Catalog number: 27848
Epoch time: 10273.49806136
Element set: 893
Inclination: 098.7157 deg
RA of node: 280.0853 deg
Eccentricity: 0.0008974
Arg of perigee: 230.2027 deg
Mean anomaly: 129.8370 deg
Mean motion: 14.20523487 rev/day
Decay rate: 5.0e-07 rev/day^2
Epoch rev: 37599
Checksum: 333
Satellite: AO-51
Catalog number: 28375
Epoch time: 10273.85425587
Element set: 787
Inclination: 098.0715 deg
RA of node: 261.3865 deg
Eccentricity: 0.0084097
Arg of perigee: 135.9367 deg
Mean anomaly: 224.8560 deg
Mean motion: 14.40700737 rev/day
Decay rate: 3.0e-07 rev/day^2
Epoch rev: 32872
Checksum: 329
Satellite: GENESAT1
Catalog number: 29655
Epoch time: 10216.61700559
Element set: 226
Inclination: 040.0059 deg
RA of node: 067.3006 deg
Eccentricity: 0.0005079
Arg of perigee: 297.8744 deg
Mean anomaly: 064.7087 deg
Mean motion: 16.44862838 rev/day
Decay rate: 1.0637092e-01 rev/day^2
Epoch rev: 20777
Checksum: 320
Satellite: CP3
Catalog number: 31129
Epoch time: 10273.35351265
Element set: 687
Inclination: 097.9308 deg
RA of node: 307.2487 deg
Eccentricity: 0.0101011
Arg of perigee: 267.6752 deg
Mean anomaly: 091.2898 deg
Mean motion: 14.52310532 rev/day
Decay rate: 3.15e-06 rev/day^2
Epoch rev: 18312
Checksum: 285
Satellite: CO-65
Catalog number: 32785
Epoch time: 10273.71639289
Element set: 797
Inclination: 097.8846 deg
RA of node: 337.1231 deg
Eccentricity: 0.0014273
Arg of perigee: 304.9614 deg
Mean anomaly: 055.0238 deg
Mean motion: 14.81724779 rev/day
Decay rate: 8.0e-07 rev/day^2
Epoch rev: 13111
Checksum: 322
Satellite: KKS-1
Catalog number: 33493
Epoch time: 10273.91850248
Element set: 901
Inclination: 098.0977 deg
RA of node: 034.3870 deg
Eccentricity: 0.0020396
Arg of perigee: 155.9435 deg
Mean anomaly: 204.2739 deg
Mean motion: 14.81123644 rev/day
Decay rate: 8.95e-06 rev/day^2
Epoch rev: 9113
Checksum: 307
Satellite: SOHLA-1
Catalog number: 33496
Epoch time: 10273.36131749
Element set: 217
Inclination: 098.0654 deg
RA of node: 021.1143 deg
Eccentricity: 0.0005761
Arg of perigee: 224.0466 deg
Mean anomaly: 136.0295 deg
Mean motion: 14.69519803 rev/day
Decay rate: 2.57e-06 rev/day^2
Epoch rev: 9032
Checksum: 280
Satellite: TISAT-1
Catalog number: 36799
Epoch time: 10273.85089937
Element set: 173
Inclination: 098.1378 deg
RA of node: 334.1378 deg
Eccentricity: 0.0016404
Arg of perigee: 037.7229 deg
Mean anomaly: 322.5111 deg
Mean motion: 14.80181147 rev/day
Decay rate: 4.94e-06 rev/day^2
Epoch rev: 1194
Checksum: 310
Satellite: STUDSAT
Catalog number: 36801
Epoch time: 10272.79888631
Element set: 0077
Inclination: 098.1406 deg
RA of node: 332.9983 deg
Eccentricity: 0.0014892
Arg of perigee: 028.7414 deg
Mean anomaly: 331.4614 deg
Mean motion: 14.79677060 rev/day
Decay rate: 1.262e-05 rev/day^2
Epoch rev: 01178
Checksum: 314
/EX
SB KEPS @ AMSAT $ORB10273.W
Orbital Elements 10273.WEATHER
HR AMSAT ORBITAL ELEMENTS FOR WEATHER SATELLITES
FROM WA5QGD FORT WORTH,TX September 30, 2010
BID: ORB10273.W
TO ALL RADIO AMATEURS BT
Satellite: NOAA-10
Catalog number: 16969
Epoch time: 10273.50745582
Element set: 222
Inclination: 098.6489 deg
RA of node: 301.4504 deg
Eccentricity: 0.0011428
Arg of perigee: 265.0021 deg
Mean anomaly: 094.9856 deg
Mean motion: 14.27428214 rev/day
Decay rate: -2.8e-07 rev/day^2
Epoch rev: 25060
Checksum: 291
Satellite: NOAA-11
Catalog number: 19531
Epoch time: 10273.32180365
Element set: 231
Inclination: 098.7666 deg
RA of node: 000.5441 deg
Eccentricity: 0.0010946
Arg of perigee: 205.5476 deg
Mean anomaly: 154.5165 deg
Mean motion: 14.14935792 rev/day
Decay rate: -1.73e-06 rev/day^2
Epoch rev: 13600
Checksum: 277
Satellite: NOAA-12
Catalog number: 21263
Epoch time: 10273.41538462
Element set: 725
Inclination: 098.7647 deg
RA of node: 286.5607 deg
Eccentricity: 0.0011772
Arg of perigee: 218.7141 deg
Mean anomaly: 141.3197 deg
Mean motion: 14.25656645 rev/day
Decay rate: 5.7e-07 rev/day^2
Epoch rev: 739
Checksum: 306
Satellite: MET-3/5
Catalog number: 21655
Epoch time: 10272.86529344
Element set: 0927
Inclination: 082.5560 deg
RA of node: 234.6654 deg
Eccentricity: 0.0014962
Arg of perigee: 087.0120 deg
Mean anomaly: 273.2769 deg
Mean motion: 13.17025200 rev/day
Decay rate: 5.1e-07 rev/day^2
Epoch rev: 91945
Checksum: 296
Satellite: MET-2/21
Catalog number: 22782
Epoch time: 10272.78458619
Element set: 0898
Inclination: 082.5490 deg
RA of node: 169.4703 deg
Eccentricity: 0.0023764
Arg of perigee: 107.9479 deg
Mean anomaly: 252.4283 deg
Mean motion: 13.83649994 rev/day
Decay rate: 3.8e-07 rev/day^2
Epoch rev: 86254
Checksum: 357
